Regional Weather Roundup
Issued by NWS

Home | Current Version | Previous Version | Graphics & Text | Print | Product List | Glossary On
Versions: 1 2 3 4 5 6 7 8 9 10 11 12 13 14 15 16 17 18 19 20 21 22 23 24 25 26 27 28 29 30 31 32 33 34 35 36 37 38 39 40 41 42 43 44 45 46 47 48 49 50
000
ASUS43 KTOP 041359
RWRKS

WEATHER ROUNDUP FOR KANSAS
NATIONAL WEATHER SERVICE GOODLAND KS
900 AM CDT FRI SEP 04 2015

NOTE:  "FAIR" INDICATES FEW OR NO CLOUDS BELOW 12,000 FEET WITH NO
SIGNIFICANT WEATHER AND/OR OBSTRUCTIONS TO VISIBILITY.

KSZ001>006-013>018-027>032-041>047-041500-
NORTHWEST KANSAS

CITY           SKY/WX    TMP DP  RH WIND       PRES   REMARKS
GOODLAND       SUNNY     70  53  54 NW13      29.92R
HAYS           MOSUNNY   79  59  50 S21G30    29.86R
HILL CITY      SUNNY     78  60  53 VRB7      29.86R
RUSSELL        MOSUNNY   80  62  54 S21G33    29.87R
$$

KSZ061>065-074>080-084>089-041500-
SOUTHWEST KANSAS

CITY           SKY/WX    TMP DP  RH WIND       PRES   REMARKS
DODGE CITY     MOSUNNY   74  60  61 S15       29.92R
ELKHART          N/A     71  54  55 W8          N/A
GARDEN CITY    MOSUNNY   72  58  61 S14       29.90R
GREAT BEND     SUNNY     77  61  57 S25G32    29.89S
LIBERAL        SUNNY     72  57  60 S12       29.94R
$$

KSZ066>073-081>083-090>101-041500-
SOUTHEAST KANSAS

CITY           SKY/WX    TMP DP  RH WIND       PRES   REMARKS
CHANUTE        SUNNY     76  69  79 S8        30.00R
COFFEYVILLE    SUNNY     76  69  79 S8        30.00R
HUTCHINSON     SUNNY     79  64  60 S15G22    29.95R
NEWTON         SUNNY     75  63  64 S13       29.99S
PARSONS        SUNNY     78  69  73 VRB5      30.01R
WICHITA INTL   MOSUNNY   77  65  66 S10       29.96R
WICHITA JABRA  SUNNY     76  66  71 S12       29.97R
WINFIELD       SUNNY     78  67  68 S10       29.99R
$$

KSZ007>012-019>026-033>040-048>060-102>105-041500-
NORTHEAST KANSAS

CITY           SKY/WX    TMP DP  RH WIND       PRES   REMARKS
CONCORDIA      PTSUNNY   77  64  64 S14       29.91R
EMPORIA        SUNNY     75  68  78 S12       29.98R
LAWRENCE       MOSUNNY   77  70  79 S5        29.98R
MANHATTAN      SUNNY     80  66  62 S7        29.94R
OLATHE IND     MOSUNNY   74  68  81 S8        30.00R
OLATHE EXE     MOSUNNY   74  69  85 S8        30.00R
SALINA         SUNNY     81  64  56 S15       29.92R
TOPEKA BILLARD SUNNY     78  69  73 S6        29.97R
TOPEKA FORBES  SUNNY     78  69  73 S8        29.98R
$$



USA.gov is the U.S. government's official web portal to all federal, state and local government web resources and services.